Tracking 25995 objects as of 19-Aug-2022
HD Live streaming from Space Station
objects crossing your sky now

SL-12 R/B(2)

Track SL-12 R/B(2) now!


NORAD ID: 16870
Int'l Code: 1986-007F
Perigee: 36,345.6 km
Apogee: 36,657.8 km
Inclination: 13.3 °
Period: 1,472.4 minutes
Semi major axis: 42872 km
RCS: 2.3779 m2 (large)
Launch date: January 17, 1986
Source: Commonwealth of Independent States (former USSR) (CIS)
Launch site: TYURATAM MISSILE AND SPACE COMPLEX (TTMTR)

Note: This is a ROCKET BODY
aabbcc
Your satellite tracking list
Your tracking list is empty




NASA's NSSDC Master Catalog

Two Line Element Set (TLE):
1 16870U 86007F   22231.51853681 -.00000072  00000-0  00000-0 0  9990
2 16870  13.2788 332.4899 0036407 140.9292 321.8186  0.97798276128979
Source of the keplerian elements: AFSPC